Home   Weather   Bretten   Past weeks

Flag for Germany Past Weather in Bretten, Baden-Württemberg, Germany — Yesterday and Last 2 Weeks

Now
41 °F

Rain showers. Partly sunny.


Feels Like: 37 °F
Forecast: 33 / 48 °F
Wind: 6 mph from South

Location: Karlsruhe - Baden Wurttemberg

Current Time: Feb 24, 2017 at 4:05:29 pm

Latest Report: Feb 24, 2017 at 3:20 pm


Visibility: 6 mi

Pressure: 29.98 "Hg

Humidity: 81%

Dew Point: 36 °F

Location of BrettenLocation

Past Weather in Bretten — Graph

°F

Bretten Temperature Yesterday

Maximum temperature yesterday: 66 °F (at 2:20 pm)
Minimum temperature yesterday: 43 °F (at 7:20 am)
Average temperature yesterday: 54 °F

High & Low Weather Summary for the Past Weeks

 TemperatureHumidityPressure
High66 °F (Feb 23, 2:20 pm)100% (Feb 11, 4:50 am)30.60 "Hg (Feb 11, 4:50 am)
Low23 °F (Feb 14, 6:50 am)22% (Feb 23, 2:50 pm)29.53 "Hg (Feb 23, 2:50 pm)
Average42 °F81%30.19 "Hg
* Reported Feb 9 2:20 pm — Feb 24 2:50 pm, Bretten, Weather by CustomWeather, © 2017

Note: Actual official high and low records may vary slightly from our data, if they occured in-between our weather recording intervals... More about our weather records

Advertising

Bretten Weather History for the Previous 24 Hours

Scroll right to see more
 ConditionsComfort  
Time TempWeatherWind HumidityBarometerVisibility
2:50 pm
Fri, Feb 24
45 °FScattered showers. Broken clouds.10 mph71%29.95 "HgN/A
2:20 pm45 °FSprinkles. Partly sunny.9 mph66%29.95 "HgN/A
1:50 pm46 °FScattered showers. Broken clouds.2 mph57%29.95 "HgN/A
1:20 pm46 °FScattered showers. Broken clouds.3 mph57%29.95 "HgN/A
12:50 pm46 °FBroken clouds.8 mph62%29.95 "HgN/A
12:20 pm46 °FBroken clouds.8 mph62%29.95 "HgN/A
11:50 am45 °FBroken clouds.5 mph66%29.95 "HgN/A
11:20 am45 °FBroken clouds.9 mph71%29.95 "HgN/A
10:50 am45 °FBroken clouds.7 mph76%29.95 "HgN/A
10:20 am45 °FBroken clouds.8 mph71%29.95 "HgN/A
9:50 am43 °FPartly sunny.6 mph81%29.92 "HgN/A
9:20 am43 °FScattered clouds.7 mph76%29.92 "HgN/A
8:50 am41 °FScattered clouds.8 mph81%29.89 "HgN/A
8:20 am41 °FScattered clouds.9 mph81%29.89 "HgN/A
7:50 am41 °FScattered clouds.9 mph81%29.86 "HgN/A
7:20 am43 °FScattered clouds.10 mph76%29.86 "HgN/A
6:50 am43 °FPassing clouds.8 mph76%29.83 "HgN/A
6:20 am45 °FPassing clouds.9 mph71%29.83 "HgN/A
5:50 am45 °FClear.13 mph71%29.83 "Hg10 mi
5:20 am45 °FClear.13 mph71%29.83 "Hg10 mi
4:50 am45 °FClear.14 mph66%29.80 "Hg10 mi
4:20 am45 °FClear.13 mph66%29.80 "Hg10 mi
3:50 am45 °FClear.12 mph66%29.77 "Hg10 mi
3:20 am46 °FPassing clouds.12 mph62%29.77 "HgN/A
2:50 am46 °FPassing clouds.14 mph66%29.77 "HgN/A
10:50 pm
Thu, Feb 23
50 °FPartly cloudy.17 mph62%29.65 "HgN/A
10:20 pm50 °FPartly cloudy.17 mph67%29.62 "HgN/A
9:50 pm50 °FPassing clouds.18 mph71%29.62 "HgN/A
9:27 pm48 °FLight rain. Passing clouds.17 mph76%29.62 "HgN/A
8:50 pm54 °FLight rain. Passing clouds.21 mph63%29.62 "HgN/A
8:20 pm54 °FPassing clouds.20 mph63%29.59 "HgN/A
7:50 pm54 °FPassing clouds.17 mph63%29.59 "HgN/A
7:20 pm54 °FScattered showers. Passing clouds.23 mph63%29.59 "HgN/A
6:50 pm54 °FSprinkles. Passing clouds.15 mph67%29.59 "HgN/A
6:20 pm54 °FRain showers. Partly cloudy.17 mph67%29.59 "Hg5 mi
5:50 pm59 °FScattered showers. Broken clouds.17 mph39%29.56 "HgN/A
5:20 pm59 °FScattered showers. Clear.20 mph36%29.53 "HgN/A
4:50 pm61 °FSunny.20 mph31%29.53 "Hg10 mi
4:20 pm63 °FSunny.17 mph27%29.53 "Hg10 mi
Weather by CustomWeather, © 2017

See weather overviewHow to use our weather pages